Location: Unspecified
(0.0000°N, 0.0000°E)
Time: 17:24:52
(UTC+00:00)

STARLINK 1065 - Pass Details

Date: 16 January 2020
Orbit: 549 x 550 km, 53.0° (Epoch: 22 January)

Event Time Altitude Azimuth Distance (km) Brightness Sun altitude
Rises 19:38:26 0° 302° (WNW) 2,707 7.7 -20.6°
Reaches altitude 10° 19:41:04 10° 286° (WNW) 1,818 7.0 -21.3°
Maximum altitude 19:44:14 21° 235° (SW) 1,253 6.2 -22.0°
Drops below altitude 10° 19:47:26 10° 185° (S) 1,826 6.6 -22.7°
Sets 19:50:05 0° 169° (S) 2,723 7.3 -23.3°
